Weather History for KRPJ - August, 2014

Change the Weather History Date:

Friday, August 22, 2014

  Actual Average (KRFD) Record (KRFD)
Temperature  
Mean Temperature 76 °F 71 °F  
Max Temperature 83 °F 82 °F 101 °F (1936)
Min Temperature 70 °F 61 °F 41 °F (1923)
Degree Days  
Heating Degree Days 0 0  
Month to date heating degree days 0  
Since 1 June heating degree days 34  
Since 1 July heating degree days 3  
Cooling Degree Days 12 7  
Month to date cooling degree days 168  
Year to date cooling degree days 672  
Since 1 June cooling degree days 617  
Growing Degree Days 26 (Base 50)    
Moisture  
Dew Point 71 °F    
Average Humidity 87    
Maximum Humidity 95    
Minimum Humidity 69    
Precipitation  
Precipitation 0.05 in 0.14 in 2.95 in (2002)
Month to date precipitation 3.33  
Year to date precipitation 24.40  
Snow  
Snow 0.00 in 0.00 in 0.00 in ()
Month to date snowfall 0.0  
Since 1 June snowfall 0.0  
Since 1 July snowfall 0.0  
Snow Depth -    
Sea Level Pressure  
Sea Level Pressure 29.95 in    
Wind  
Wind Speed 6 mph (SW)    
Max Wind Speed 17 mph    
Max Gust Speed 22 mph    
Visibility 9 miles    
Events Rain , Thunderstorm    
T = Trace of Precipitation, MM = Missing Value Source: NWS Daily Summary

Daily Weather History Graph

Daily Weather History Graph

Search for Another Location

Airport or City:

Trip Planner

Search our weather history database for the weather conditions in past years. The results will help you decide how hot, cold, wet, or windy it might be!

Date:

Astronomy

Aug. 22, 2014 Rise Set
Actual Time 6:11 AM CDT 7:45 PM CDT
Civil Twilight 5:42 AM CDT 8:15 PM CDT
Nautical Twilight 5:06 AM CDT 8:50 PM CDT
Astronomical Twilight 4:28 AM CDT 9:28 PM CDT
Moon 3:33 AM CDT (8/22) 5:55 PM CDT (8/22)
Length of Visible Light 14h 32m
Length of Day
13h 34m
Waning Crescent, 7% of the Moon is Illuminated
Aug 22
Waning Crescent
Aug 25
New
Sep 2
First Quarter
Sep 8
Full
Sep 15
Last Quarter

Hourly Weather History & Observations

Time (CDT) Temp. Heat Index Dew Point Humidity Pressure Visibility Wind Dir Wind Speed Gust Speed Precip Events Conditions
12:15 AM 73.6 °F - 71.8 °F 94% 29.92 in 5.0 mi ESE 5.8 mph - N/A Thunderstorm Overcast
12:35 AM 73.6 °F - 71.8 °F 94% 29.94 in 7.0 mi South 9.2 mph - N/A Thunderstorm Thunderstorm
12:55 AM 73.4 °F - 70.2 °F 90% 29.93 in 10.0 mi South 6.9 mph - N/A Thunderstorm Overcast
1:30 AM 72.5 °F - 70.5 °F 93% 29.91 in 7.0 mi Calm Calm - 0.05 in Rain Heavy Rain
3:00 AM 70.7 °F - 68.9 °F 94% 29.89 in 10.0 mi Calm Calm - N/A   Scattered Clouds
3:15 AM 70.7 °F - 69.3 °F 95% 29.89 in 10.0 mi Calm Calm - N/A   Scattered Clouds
3:35 AM 70.7 °F - 68.9 °F 94% 29.91 in 10.0 mi SE 5.8 mph - N/A   Scattered Clouds
3:50 AM 70.7 °F - 68.9 °F 94% 29.91 in 10.0 mi ESE 4.6 mph - N/A   Mostly Cloudy
4:40 AM 70.0 °F - 68.4 °F 95% 29.92 in 10.0 mi SE 3.5 mph - N/A   Clear
4:55 AM 70.0 °F - 68.4 °F 95% 29.91 in 10.0 mi ESE 4.6 mph - N/A   Scattered Clouds
5:15 AM 70.2 °F - 68.5 °F 95% 29.91 in 10.0 mi SE 4.6 mph - N/A Thunderstorm Scattered Clouds
5:35 AM 70.7 °F - 68.9 °F 94% 29.91 in 10.0 mi SE 4.6 mph - N/A   Mostly Cloudy
5:55 AM 71.2 °F - 69.4 °F 94% 29.93 in 10.0 mi SE 5.8 mph - N/A   Overcast
6:15 AM 71.4 °F - 69.8 °F 95% 29.94 in 10.0 mi SE 6.9 mph - N/A   Overcast
6:35 AM 71.6 °F - 69.8 °F 94% 29.94 in 5.0 mi SE 6.9 mph - N/A   Mostly Cloudy
6:55 AM 72.1 °F - 70.7 °F 95% 29.94 in 5.0 mi SSE 6.9 mph - N/A   Overcast
7:15 AM 72.5 °F - 70.7 °F 94% 29.94 in 7.0 mi SSE 5.8 mph - N/A   Overcast
7:35 AM 72.9 °F - 71.2 °F 95% 29.93 in 5.0 mi South 4.6 mph - N/A   Scattered Clouds
7:55 AM 73.4 °F - 71.8 °F 95% 29.93 in 7.0 mi South 4.6 mph - N/A   Clear
8:15 AM 74.3 °F - 72.1 °F 93% 29.94 in 7.0 mi South 8.1 mph - N/A   Scattered Clouds
8:35 AM 74.8 °F - 72.5 °F 92% 29.94 in 10.0 mi South 6.9 mph - N/A   Mostly Cloudy
8:55 AM 75.7 °F - 72.7 °F 90% 29.95 in 10.0 mi SSW 9.2 mph - N/A   Mostly Cloudy
9:15 AM 76.1 °F - 72.3 °F 88% 29.94 in 10.0 mi SSW 6.9 mph - N/A   Scattered Clouds
9:35 AM 76.5 °F - 72.5 °F 87% 29.96 in 10.0 mi SW 8.1 mph - N/A   Clear
9:55 AM 76.1 °F - 72.5 °F 89% 29.97 in 10.0 mi SW 6.9 mph - N/A   Clear
10:15 AM 75.2 °F - 72.0 °F 90% 29.99 in 10.0 mi SW 13.8 mph - N/A   Mostly Cloudy
10:35 AM 74.8 °F - 71.2 °F 88% 29.98 in 10.0 mi SW 13.8 mph 21.9 mph N/A   Overcast
10:55 AM 75.2 °F - 70.2 °F 84% 29.96 in 10.0 mi SSW 5.8 mph - N/A   Scattered Clouds
11:15 AM 73.6 °F - 67.1 °F 80% 29.96 in 10.0 mi SW 9.2 mph - N/A   Clear
11:35 AM 73.6 °F - 67.3 °F 81% 29.96 in 10.0 mi SW 9.2 mph - N/A   Clear
11:55 AM 74.8 °F - 68.7 °F 81% 29.97 in 10.0 mi WSW 10.4 mph - N/A   Clear
12:15 PM 75.2 °F - 68.5 °F 80% 29.98 in 10.0 mi WSW 12.7 mph 18.4 mph N/A   Clear
12:35 PM 76.6 °F - 69.3 °F 78% 29.96 in 10.0 mi West 11.5 mph - N/A   Scattered Clouds
12:55 PM 78.1 °F - 70.3 °F 77% 29.96 in 10.0 mi West 15.0 mph 21.9 mph N/A   Scattered Clouds
1:15 PM 77.9 °F - 70.7 °F 78% 29.95 in 10.0 mi West 17.3 mph - N/A   Scattered Clouds
1:35 PM 77.7 °F - 71.2 °F 80% 29.95 in 10.0 mi WSW 12.7 mph - N/A   Scattered Clouds
1:55 PM 77.2 °F - 71.2 °F 82% 29.95 in 10.0 mi West 11.5 mph - N/A   Mostly Cloudy
2:15 PM 78.8 °F - 72.0 °F 79% 29.96 in 10.0 mi WNW 10.4 mph - N/A   Overcast
2:35 PM 79.7 °F - 72.1 °F 78% 29.95 in 10.0 mi West 10.4 mph - N/A   Mostly Cloudy
2:55 PM 80.1 °F 84.1 °F 72.5 °F 78% 29.95 in 10.0 mi West 9.2 mph - N/A   Overcast
3:15 PM 80.8 °F 85.1 °F 72.3 °F 75% 29.95 in 10.0 mi West 10.4 mph - N/A   Overcast
3:35 PM 81.0 °F 85.2 °F 72.0 °F 74% 29.95 in 10.0 mi West 11.5 mph - N/A   Overcast
3:55 PM 81.5 °F 85.7 °F 71.4 °F 71% 29.94 in 10.0 mi West 8.1 mph - N/A   Scattered Clouds
4:15 PM 82.8 °F 87.9 °F 72.0 °F 70% 29.95 in 10.0 mi West 6.9 mph - N/A   Clear
4:35 PM 83.3 °F 88.7 °F 72.1 °F 69% 29.95 in 10.0 mi West 9.2 mph - N/A   Clear
4:55 PM 81.7 °F 86.7 °F 72.5 °F 74% 29.95 in 10.0 mi WNW 5.8 mph - N/A   Mostly Cloudy
5:15 PM 82.0 °F 87.2 °F 72.7 °F 73% 29.95 in 10.0 mi West 3.5 mph - N/A   Scattered Clouds
5:35 PM 82.2 °F 87.3 °F 72.5 °F 72% 29.95 in 10.0 mi Calm Calm - N/A   Clear
5:55 PM 81.7 °F 86.7 °F 72.9 °F 74% 29.95 in 10.0 mi Calm Calm - N/A   Clear
6:15 PM 81.5 °F 86.5 °F 72.9 °F 75% 29.96 in 10.0 mi Calm Calm - N/A   Scattered Clouds
6:35 PM 80.6 °F 85.2 °F 73.0 °F 78% 29.96 in 10.0 mi West 4.6 mph - N/A   Scattered Clouds
6:55 PM 79.7 °F - 73.4 °F 81% 29.96 in 10.0 mi SW 3.5 mph - N/A   Scattered Clouds
7:15 PM 79.7 °F - 73.8 °F 82% 29.96 in 10.0 mi Calm Calm - N/A   Clear
7:35 PM 78.6 °F - 74.3 °F 87% 29.95 in 10.0 mi Calm Calm - N/A   Clear
7:55 PM 77.0 °F - 73.9 °F 90% 29.95 in 7.0 mi Calm Calm - N/A   Clear
8:15 PM 76.1 °F - 73.6 °F 92% 29.96 in 7.0 mi Calm Calm - N/A   Clear
8:35 PM 75.2 °F - 72.9 °F 92% 29.97 in 7.0 mi Calm Calm - N/A   Clear
8:55 PM 75.2 °F - 73.0 °F 93% 29.98 in 7.0 mi Calm Calm - N/A   Scattered Clouds
9:15 PM 74.3 °F - 72.5 °F 94% 29.98 in 5.0 mi Calm Calm - N/A   Mostly Cloudy
9:55 PM 73.6 °F - 72.0 °F 95% 29.99 in 5.0 mi Calm Calm - N/A   Mostly Cloudy
10:15 PM 73.0 °F - 71.6 °F 95% 30.00 in 7.0 mi Calm Calm - N/A   Scattered Clouds
10:35 PM 72.7 °F - 71.1 °F 95% 29.99 in 7.0 mi Calm Calm - N/A   Scattered Clouds
10:55 PM 72.7 °F - 71.1 °F 95% 29.99 in 7.0 mi Calm Calm - N/A   Clear
11:15 PM 72.5 °F - 70.9 °F 95% 29.99 in 7.0 mi Calm Calm - N/A   Clear
11:35 PM 72.5 °F - 70.9 °F 95% 29.98 in 7.0 mi Calm Calm - N/A   Clear
11:55 PM 72.3 °F - 70.7 °F 95% 29.98 in 7.0 mi Calm Calm - N/A   Clear